Bloomington, IL

11:49 AM CDT on June 26, 2017 (GMT -0500)
Central Ill Regional

Weather History for KBMI - April, 2014

Change the Weather History Date:

Friday, April 18, 2014

  Actual Average Record
Temperature  
Mean Temperature 52 °F -  
Max Temperature 64 °F 0 °F 87 °F (2002)
Min Temperature 38 °F - 32 °F (2001)
Degree Days  
Heating Degree Days 14    
Growing Degree Days 2 (Base 50)    
Moisture  
Dew Point 33 °F    
Average Humidity 53    
Maximum Humidity 82    
Minimum Humidity 21    
Precipitation  
Precipitation 0.00 in - - ()
Sea Level Pressure  
Sea Level Pressure 30.31 in    
Wind  
Wind Speed 7 mph (North)    
Max Wind Speed 15 mph    
Max Gust Speed -    
Visibility 10 miles    
Events      
Averages and records for this station are not official NWS values.
T = Trace of Precipitation, MM = Missing Value Source: NWS Daily Summary

Daily Weather History Graph

Daily Weather History Graph

Search for Another Location

Airport or City:

Trip Planner

Search our weather history database for the weather conditions in past years. The results will help you decide how hot, cold, wet, or windy it might be!

Date:

Astronomy

Apr. 18, 2014 Rise Set
Actual Time 6:12 AM CDT 7:37 PM CDT
Civil Twilight 5:44 AM CDT 8:06 PM CDT
Nautical Twilight 5:10 AM CDT 8:40 PM CDT
Astronomical Twilight 4:33 AM CDT 9:17 PM CDT
Moon 11:23 PM CDT (4/18) 8:34 AM CDT (4/18)
Length of Visible Light 14h 22m
Length of Day
13h 25m
Waning Gibbous, 87% of the Moon is Illuminated
Apr 18
Waning Gibbous
Apr 22
Last Quarter
Apr 29
New
May 6
First Quarter
May 14
Full

Hourly Weather History & Observations

Time (CDT) Temp. Windchill Dew Point Humidity Pressure Visibility Wind Dir Wind Speed Gust Speed Precip Events Conditions
12:56 AM 46.9 °F - 36.0 °F 66% 30.29 in 10.0 mi NNW 6.9 mph - N/A   Clear
1:56 AM 45.9 °F 42.3 °F 36.0 °F 68% 30.28 in 10.0 mi NNW 6.9 mph - N/A   Clear
2:56 AM 45.9 °F 42.9 °F 36.0 °F 68% 30.27 in 10.0 mi NNW 5.8 mph - N/A   Mostly Cloudy
3:56 AM 45.0 °F 43.5 °F 34.9 °F 68% 30.29 in 10.0 mi NW 3.5 mph - N/A   Scattered Clouds
4:56 AM 45.0 °F 43.5 °F 34.9 °F 68% 30.30 in 10.0 mi NNW 3.5 mph - N/A   Overcast
5:56 AM 43.0 °F 39.5 °F 34.9 °F 73% 30.31 in 10.0 mi NNW 5.8 mph - N/A   Mostly Cloudy
6:56 AM 39.9 °F 35.8 °F 34.9 °F 82% 30.33 in 10.0 mi North 5.8 mph - N/A   Partly Cloudy
7:56 AM 45.0 °F 41.2 °F 36.0 °F 71% 30.34 in 10.0 mi North 6.9 mph - N/A   Clear
8:56 AM 48.9 °F - 36.9 °F 63% 30.34 in 10.0 mi North 9.2 mph - N/A   Clear
9:56 AM 52.0 °F - 34.9 °F 52% 30.35 in 10.0 mi North 6.9 mph - N/A   Clear
10:56 AM 54.9 °F - 36.0 °F 49% 30.35 in 10.0 mi NNW 10.4 mph - N/A   Clear
11:56 AM 56.8 °F - 34.9 °F 44% 30.35 in 10.0 mi WNW 10.4 mph - N/A   Clear
12:56 PM 59.0 °F - 32.0 °F 36% 30.34 in 10.0 mi NNW 8.1 mph - N/A   Clear
1:56 PM 61.0 °F - 30.0 °F 31% 30.32 in 10.0 mi NNW 9.2 mph - N/A   Clear
2:56 PM 61.9 °F - 29.1 °F 29% 30.31 in 10.0 mi Variable 6.9 mph - N/A   Clear
3:56 PM 63.9 °F - 27.1 °F 25% 30.28 in 10.0 mi Variable 4.6 mph - N/A   Clear
4:56 PM 64.9 °F - 25.2 °F 22% 30.27 in 10.0 mi NNE 8.1 mph - N/A   Clear
5:56 PM 63.9 °F - 23.0 °F 21% 30.26 in 10.0 mi NNE 6.9 mph - N/A   Clear
6:56 PM 61.0 °F - 27.1 °F 28% 30.26 in 10.0 mi NNE 9.2 mph - N/A   Clear
7:56 PM 54.0 °F - 27.1 °F 36% 30.27 in 10.0 mi NNE 6.9 mph - N/A   Clear
8:56 PM 50.0 °F - 37.9 °F 63% 30.30 in 10.0 mi ENE 11.5 mph - N/A   Clear
9:56 PM 45.9 °F 40.4 °F 36.0 °F 68% 30.33 in 10.0 mi ENE 11.5 mph - N/A   Clear
10:56 PM 41.9 °F 34.6 °F 34.0 °F 73% 30.34 in 10.0 mi ENE 13.8 mph - N/A   Clear
11:56 PM 38.8 °F 30.4 °F 32.9 °F 79% 30.35 in 10.0 mi ENE 15.0 mph - N/A   Clear